Location: Karabay?r
(36.9924°N, 30.6007°E)
Time: 17:00:57
(UTC+00:00)

Daily predictions for brighter satellites

Satellite Brightness Start Highest point End
(mag) Time Altitude Azimuth Time Altitude Azimuth Time Altitude Azimuth
Cosmos 2360 Rocket 3.3 15:00:39 10° SW 15:06:00 44° WNW 15:11:25 10° N
Okean O Rocket 2.5 15:02:53 10° S 15:07:08 54° W 15:11:23 10° NNW
ATLAS 2AS CENTAUR R/B 3.8 14:59:56 10° SW 15:07:37 54° NW 15:15:29 10° NNE
COBE Rocket 4.0 15:03:52 10° NNE 15:08:24 52° E 15:12:56 10° S
Exosat Rocket 4.3 15:03:39 10° S 15:09:07 37° ESE 15:13:46 10° NE
Cosmos 2333 Rocket 2.3 15:03:53 10° S 15:09:31 65° ESE 15:15:14 10° NNE
Radarsat Rocket 4.5 15:05:44 10° S 15:12:18 73° WSW 15:18:18 10° NNW
Feng Yun 1-1 Rocket 4.2 15:08:41 10° SSE 15:14:00 60° ENE 15:19:17 10° N
Meteor 1-14 Rocket 4.4 15:08:36 10° N 15:14:33 87° W 15:20:21 10° S
Cosmos 2251 Rocket 4.4 15:10:05 10° SSE 15:14:42 31° E 15:19:19 10° NE
Okean-O 3.4 15:12:05 10° SE 15:15:58 31° ENE 15:19:52 10° N
AQUARIUS 4.3 15:13:09 10° SSE 15:17:32 54° ENE 15:21:55 10° N
Cosmos 1302 Rocket 4.3 15:15:44 10° N 15:20:46 43° ENE 15:25:44 10° SE
Cosmos 2279 Rocket 4.0 15:15:21 10° N 15:21:37 70° E 15:27:50 10° SSE
Cosmos 1634 Rocket 4.4 15:17:30 10° NNW 15:23:37 67° W 15:29:44 10° S
Cosmos 2237 Rocket 3.1 15:19:50 10° SSE 15:24:41 30° ESE 15:29:33 10° NE
Cosmos 1862 Rocket 4.1 15:20:55 10° SSE 15:24:53 37° E 15:28:54 10° NNE
Cosmos 44 Rocket 3.1 15:24:28 10° NNW 15:29:11 84° ENE 15:33:54 10° SSE
CZ-4 R/B 2.7 15:28:15 10° ESE 15:31:01 19° ENE 15:33:46 10° NNE
Cosmos 1812 2.9 15:31:22 10° S 15:35:05 49° E 15:38:50 10° NNE
SL-8 R/B 4.1 15:31:53 10° NW 15:36:32 46° NNE 15:40:39 13° E
Cosmos 1844 3.7 15:30:56 10° NNW 15:36:39 88° WSW 15:42:14 10° SSE
Nadezhda 4 Rocket 4.1 15:31:19 10° SSE 15:37:26 56° E 15:43:37 10° NNE
Cosmos 1536 3.8 15:36:52 10° NNE 15:40:14 25° ENE 15:43:33 10° SE
Cosmos 1707 Rocket 4.4 15:36:54 10° SSW 15:41:13 53° W 15:45:37 10° N
Aureole 1 Rocket 4.4 15:40:33 10° SE 15:41:07 11° ESE 15:41:07 11° ESE
Cosmos 2219 Rocket 2.6 15:39:25 10° SSW 15:44:58 64° WNW 15:50:34 10° NNE
Envisat 3.0 15:41:12 10° SSE 15:46:11 60° ENE 15:51:11 10° N
SMAP 3.7 15:45:06 10° S 15:49:41 58° W 15:54:17 10° NNW
YAOGAN 3 4.5 15:46:47 10° SSE 15:51:08 78° ENE 15:55:30 10° N
CORIOLIS 4.4 15:46:20 10° S 15:51:45 75° WSW 15:57:13 10° NNW
CENTAUR R/B 3.5 15:44:54 10° NW 15:53:11 74° WSW 16:01:52 10° SSE
Lacrosse 5 rocket 1.4 15:49:04 10° SW 15:53:25 80° NW 15:56:13 20° NE
Cosmos 1980 3.7 15:48:46 10° S 15:54:17 59° ESE 15:59:12 13° NNE
Cosmos 1844 Rocket 3.9 15:52:30 10° NW 15:57:46 44° WSW 16:03:02 10° S
Cosmos 2026 Rocket 4.4 15:55:19 10° SSE 16:00:45 36° E 16:05:57 11° NNE
COSMOS 2428 3.6 15:56:35 10° SW 16:02:01 47° WNW 16:07:30 10° N
NOAA 12 4.2 15:57:22 10° S 16:02:41 79° WSW 16:08:00 10° NNW
H-2A R/B 4.4 15:59:37 10° SSW 16:03:04 36° W 16:06:31 10° NNW
COSMO-SKYMED 1 2.5 15:59:19 10° NNE 16:03:40 82° E 16:08:00 10° S
Cosmos 1908 Rocket 4.1 16:00:15 10° NNE 16:04:17 35° ENE 16:08:17 10° SE
SL-4 R/B 3.6 16:02:02 10° W 16:05:12 25° NNW 16:07:15 17° NNE
ERBS 2.5 16:02:18 10° NNW 16:05:31 45° NE 16:05:47 43° ENE
Cosmos 304 Rocket 4.1 16:03:59 10° NNW 16:08:46 68° WSW 16:13:31 10° S
Meteor 1-5 Rocket 4.3 16:03:25 10° NNW 16:08:58 75° W 16:14:19 10° S
Cosmos 1992 Rocket 4.2 16:04:12 10° N 16:09:11 44° ENE 16:14:09 10° SE
Cosmos 1500 3.2 16:05:29 10° N 16:09:15 81° W 16:12:59 10° S
FengYun 1-2 T 4.1 16:03:59 10° SSE 16:09:26 72° ENE 16:14:54 10° N
YAOGAN 1 2.8 16:06:00 10° SE 16:10:05 43° ENE 16:14:11 10° N
CSL-04 Rocket 3.8 16:06:32 10° SE 16:11:34 47° ENE 16:16:36 10° N
Centaur D-1A AC-31 2.9 16:09:00 10° SW 16:12:09 30° SSE 16:16:31 17° ESE
Shenzhou-11 Module 3.3 16:12:47 10° WNW 16:14:53 26° NNW 16:14:53 26° NNW
Cosmos 1627 Rocket 4.5 16:13:24 10° SSE 16:19:21 56° E 16:25:19 10° NNE
CSL-04 Debris 4.1 16:15:39 10° SSE 16:21:01 60° ENE 16:26:23 10° N
OAO 2 Rocket 3.7 16:20:53 10° WSW 16:25:48 53° SSE 16:27:16 39° ESE
USA 116 4.4 16:22:29 10° NNE 16:27:52 89° WNW 16:33:03 10° SSW
BREEZE-M DEB (TANK) 3.8 16:25:36 10° NW 16:27:31 20° NNW 16:27:31 20° NNW
ATLAS 3B R/B 3.6 16:24:09 10° NW 16:30:38 50° WSW 16:37:17 10° S
YAOGAN 6 3.5 16:30:34 10° S 16:33:56 47° W 16:37:22 10° NNW
Cosmos 2195 Rocket 4.4 16:30:16 10° S 16:36:26 87° E 16:42:42 10° N
Atlas Centaur 2 3.7 16:29:28 10° W 16:37:17 49° S 16:42:27 23° SE
Okean 1-7 2.8 16:33:12 10° S 16:37:21 73° ESE 16:37:21 73° ESE
DMSP B5D1-3 4.4 16:35:56 38° NNE 16:37:57 74° ESE 16:43:03 10° S
NOAA 11 4.1 16:32:51 10° SSE 16:38:12 64° ENE 16:43:37 10° N
Cosmos 1092 Rocket 4.2 16:33:26 10° SSW 16:39:45 73° W 16:46:04 10° N
STARLINK-60 4.5 16:42:12 10° SW 16:44:17 35° SW 16:44:17 35° SW
Cosmos 2278 Rocket 2.2 16:40:19 10° NNW 16:46:00 82° WSW 16:51:38 10° SSE
SL-16 R/B 2.2 16:48:28 10° S 16:53:36 61° SE 16:53:36 61° SE
OAO 3 Rocket 3.7 16:52:53 10° WSW 16:56:58 50° SSW 16:56:58 50° SSW
CZ-4 R/B 3.4 17:02:25 10° SSW 17:05:50 27° W 17:09:14 10° NW
Cosmos 2237 Rocket 3.6 17:03:26 10° SW 17:08:35 35° WNW 17:11:43 20° N
Meteor 1-18 Rocket 4.2 17:04:36 10° S 17:10:13 82° SW 17:10:13 82° SW
Lacrosse 5 rocket 4.3 17:31:07 10° WNW 17:31:54 12° NW 17:31:54 12° NW
